Location: Baardburen
(53.1333°N, 5.7833°E)
Time: 22:35:28
(UTC+00:00)

Daily predictions for brighter satellites

Satellite Brightness Start Highest point End
(mag) Time Altitude Azimuth Time Altitude Azimuth Time Altitude Azimuth
USA 267 3.6 17:30:55 10° SE 17:37:27 69° SSW 17:44:01 10° WNW
Cosmos 2227 4.2 17:35:41 10° NNW 17:41:19 66° NE 17:46:54 10° SE
Cosmos 1805 3.3 17:39:06 10° S 17:42:53 53° E 17:46:42 10° NNE
Cosmos 1242 Rocket 2.4 17:40:34 10° S 17:44:06 69° E 17:47:37 10° NNE
ISS -1.3 17:43:30 10° W 17:46:03 20° SSW 17:48:35 10° SSE
Cosmos 2360 4.5 17:41:02 10° SW 17:46:47 78° WNW 17:52:32 10° NNE
Okean-O 4.1 17:43:53 10° E 17:46:57 19° ENE 17:50:02 10° NNE
SL-08 R/B 4.3 17:42:22 10° N 17:47:11 56° WNW 17:52:01 10° SW
Okean 2 4.2 17:44:09 10° NNW 17:48:15 57° W 17:52:18 10° S
Cosmos 1697 Rocket 3.0 17:43:23 10° SW 17:49:00 75° WNW 17:54:41 10° NNE
CZ-4 R/B 2.0 17:45:36 10° SE 17:49:28 37° ENE 17:53:20 10° N
SL-14 R/B 3.3 17:48:26 10° N 17:52:26 87° E 17:56:26 10° S
Cosmos 1908 Rocket 4.3 17:50:54 10° SSE 17:54:40 30° E 17:58:27 10° NNE
OBJECT-B 2.2 17:54:14 12° E 17:55:13 14° ENE 17:56:39 10° NNE
MOS 1-B 4.4 17:49:47 10° SSE 17:55:36 79° ENE 18:01:27 10° NNW
Cosmos 1733 3.1 17:52:37 10° S 17:56:22 81° E 18:00:07 10° NNE
Cosmos 2360 Rocket 3.8 17:54:46 10° ESE 17:56:55 12° E 17:59:05 10° ENE
MINOTAUR 4 R/B 4.0 17:54:48 10° NNE 17:58:19 87° WNW 18:01:47 10° SSW
Cosmos 1809 Rocket 4.4 17:53:52 10° S 17:59:52 67° E 18:05:56 10° NNE
Cosmos 1674 Rocket 3.6 17:57:13 10° N 18:01:39 87° E 18:06:05 10° S
Cosmos 1766 3.5 17:59:01 10° SSE 18:02:45 44° E 18:06:32 10° NNE
NOSS 7 (E) 4.4 18:00:20 10° NW 18:03:28 87° SW 18:07:16 10° SE
Cosmos 1025 Rocket 4.0 18:00:29 10° N 18:04:10 26° ENE 18:07:50 10° SE
Meteor 2-10 4.1 17:58:48 10° S 18:04:22 71° E 18:09:47 10° NNE
ATLAS 2AS CENTAUR R/B 3.9 17:59:54 10° WNW 18:06:48 37° N 18:13:21 10° ENE
YAOGAN 1 2.5 18:03:22 10° SSE 18:07:41 74° ENE 18:12:01 10° NNW
Cosmos 968 Rocket 4.1 18:04:43 10° SSE 18:09:24 34° ESE 18:14:05 10° NE
Okean O Rocket 1.6 18:07:11 10° SSE 18:11:31 69° ENE 18:15:55 10° N
SKYMED 2 3.8 18:08:15 10° NNE 18:12:37 78° WNW 18:16:57 10° SSW
Cosmos 2084 3.5 18:09:31 10° WSW 18:13:19 64° NW 18:17:08 10° NE
IRIDIUM 106 4.3 18:08:16 10° SSE 18:13:24 62° E 18:18:34 10° N
Meteor 2-5 Rocket 3.8 18:08:27 10° N 18:13:54 55° ENE 18:19:19 10° SSE
Lacrosse 4 Rocket 3.0 18:11:44 10° SE 18:13:56 15° ESE 18:13:56 15° ESE
Nadezhda 4 Rocket 4.0 18:10:36 10° S 18:16:49 62° E 18:23:01 10° NNE
Meteor 1-15 Rocket 4.4 18:13:12 10° SSE 18:18:30 48° E 18:23:51 10° NNE
CSL-04 Rocket 4.1 18:13:56 10° SE 18:18:54 40° ENE 18:23:58 10° N
NOSS 3-4 (A) 4.4 18:12:56 10° NW 18:19:02 42° NNE 18:24:38 15° E
NOSS 3-4 (C) 4.4 18:13:02 10° NW 18:19:08 42° NNE 18:24:44 15° E
Cosmos 2285 Rocket 4.1 18:14:01 10° NNW 18:20:25 83° WSW 18:26:48 10° SSE
USA 186 2.6 18:22:41 18° ESE 18:24:34 33° ENE 18:27:39 10° N
Cosmos 1726 2.1 18:21:14 10° SSW 18:24:53 84° WNW 18:28:34 10° N
Cosmos 2322 Rocket 3.0 18:20:27 10° SSE 18:25:16 29° ESE 18:30:06 10° NE
Cosmos 1378 Rocket 4.4 18:23:52 10° NNW 18:28:10 54° W 18:32:23 10° S
Cosmos 1975 Rocket 3.4 18:25:07 10° N 18:29:23 45° ENE 18:33:08 13° SE
Cosmos 1470 3.2 18:26:02 10° SSE 18:29:35 37° E 18:33:08 10° NNE
ARGOS Delta rocket 4.0 18:24:32 10° NNE 18:29:53 88° E 18:34:55 10° SSW
CZ-4B R/B 3.6 18:24:45 10° S 18:30:08 68° WSW 18:35:41 10° NNW
Cosmos 1980 Rocket 2.5 18:25:29 10° SW 18:31:07 70° NW 18:36:44 10° NNE
Cosmos 2292 Rocket 3.4 18:34:57 10° S 18:39:45 61° E 18:43:27 10° NNE
USA 215 3.2 18:36:54 11° ENE 18:43:16 87° SSE 18:49:50 10° WSW
IRS-1C Rocket 4.2 18:43:42 16° SE 18:47:46 56° ENE 18:52:55 10° N
Cosmos 1844 Rocket 2.6 18:43:06 10° NNW 18:48:49 78° NE 18:52:59 19° SE
Landsat 5 3.9 18:50:04 10° NNE 18:54:25 46° E 18:58:42 10° S
Cosmos 2278 3.8 18:48:48 10° SW 18:54:30 79° WNW 19:00:13 10° NNE
Cosmos 1943 Rocket 4.2 18:51:31 10° NNW 18:54:34 15° NNE 18:57:29 10° NE
SL-16 R/B 2.2 18:49:43 10° SSW 18:55:17 60° ESE 19:00:53 10° NE
Cosmos 1092 Rocket 3.9 18:52:02 10° S 18:58:17 71° E 19:04:32 10° NNE
DMSP B5D1-3 4.5 18:54:39 10° NNE 18:59:47 87° WNW 19:04:55 10° SSW
Cosmos 836 Rocket 4.4 18:54:51 10° NNW 19:00:12 80° ENE 19:03:34 23° SSE
Resurs 01 Rocket 2.4 19:01:19 32° ENE 19:01:48 33° ENE 19:05:47 10° N
Terra 4.0 19:03:50 12° NE 19:03:50 12° NE 19:05:19 10° NNE
Cosmos 2278 Rocket 3.5 18:59:08 10° NNW 19:03:51 26° NE 19:05:42 22° ENE
SJ-6B 2.6 19:02:07 27° SSE 19:04:04 86° ENE 19:07:55 10° NNW
H-2A R/B 2.8 19:07:12 40° ENE 19:07:12 40° ENE 19:10:49 10° N
Cosmos 1437 Rocket 3.0 19:03:33 10° SSW 19:07:16 66° WNW 19:11:01 10° N
Cosmos 2263 Rocket 4.5 19:02:58 10° NW 19:07:23 23° WSW 19:11:46 10° SSW
Gbstr 26 Del rocket 4.5 19:00:01 10° WSW 19:07:41 74° SSE 19:12:38 26° E
Meteor 1-24 Rocket 3.9 19:03:58 10° NNW 19:09:15 69° W 19:14:35 10° S
Cosmos 1703 3.9 19:06:58 10° N 19:10:10 37° NE 19:10:10 37° NE
Resurs 1-3 3.5 19:11:26 35° SSE 19:13:13 75° ENE 19:17:37 10° NNW
Cosmos 2369 Rocket 4.5 19:10:31 10° NNW 19:13:17 13° N 19:16:03 10° NE
SL-4 R/B 4.4 19:12:05 10° W 19:15:15 19° SW 19:17:51 12° S
Cosmos 921 Rocket 3.8 19:11:18 10° N 19:15:27 35° ENE 19:15:35 35° ENE
MetOp-A 3.4 19:17:19 53° ENE 19:17:22 53° ENE 19:21:18 10° N
Okean-O 2.7 19:20:30 26° S 19:22:56 75° WSW 19:27:24 10° NNW
Cosmos 1844 3.8 19:17:45 10° NW 19:23:19 74° WSW 19:26:12 29° SSE
JB-3 4.3 19:20:08 10° NNE 19:23:49 61° ENE 19:23:49 61° ENE
CZ-4 R/B 3.4 19:20:48 10° SSW 19:24:28 29° W 19:28:08 10° NNW
Cosmos 1486 Rocket 4.0 19:19:32 10° S 19:24:43 56° ESE 19:29:57 10° NNE
OBJECT-B 2.1 19:24:55 29° W 19:24:56 29° W 19:27:14 10° NNW
IGS 5A 3.8 19:24:37 26° S 19:26:51 62° W 19:30:59 10° NNW
S3M 4.0 19:22:12 10° N 19:28:22 56° ENE 19:30:09 42° SE
DNEPR-1 R/B 4.0 19:24:02 10° SSW 19:28:45 56° SE 19:30:36 38° ENE
Meteor 1-22 Rocket 4.4 19:24:20 10° SSW 19:29:47 71° WNW 19:35:30 10° N
Cosmos 773 Rocket 4.0 19:24:29 10° NNW 19:29:48 69° ENE 19:31:00 52° ESE
Meteor 1-21 Rocket 4.3 19:25:04 10° N 19:30:32 56° ENE 19:31:34 49° ESE
Spot 2 4.1 19:31:04 59° ENE 19:31:04 59° ENE 19:35:21 10° N
Cosmos 2333 Rocket 4.3 19:36:34 12° NE 19:36:34 12° NE 19:36:56 10° NE
Cosmos 1300 Rocket 3.4 19:30:15 35° S 19:32:03 84° E 19:36:28 10° NNE
SPOT 5 4.3 19:36:15 23° NE 19:36:15 23° NE 19:39:06 10° N
Cosmos 2360 Rocket 2.1 19:34:15 10° SSW 19:39:48 63° ESE 19:45:23 10° NE
Cosmos 1782 Rocket 4.4 19:36:17 10° SSW 19:40:32 51° WNW 19:44:50 10° N
Cosmos 1025 Rocket 4.2 19:37:51 10° NNW 19:41:55 41° W 19:44:51 17° SSW
Cosmos 158 Rocket 3.8 19:39:53 10° NNW 19:44:45 65° ENE 19:44:48 65° ENE
Okean O Rocket 4.3 19:45:24 10° SW 19:48:21 18° W 19:51:19 10° NW
Cosmos 1417 Rocket 4.3 19:42:41 10° N 19:48:51 88° E 19:51:03 43° SSE
Cosmos 968 Rocket 4.4 19:46:00 10° SW 19:51:04 48° NW 19:56:08 10° NNE
Lacrosse 4 Rocket 2.6 19:47:58 10° SW 19:50:17 33° SW 19:50:17 33° SW
Cosmos 2026 Rocket 4.5 19:48:07 10° SSW 19:54:04 58° WNW 20:00:06 10° N
USA 186 4.2 19:55:51 18° WSW 19:56:57 21° W 19:59:37 10° NW
ATLAS 2AS CENTAUR R/B 3.5 19:52:24 10° NW 19:59:24 44° NNE 20:01:35 35° ENE
Okean 2 Rocket 4.3 20:03:33 34° NNE 20:03:33 34° NNE 20:06:10 10° NNE
Cosmos 1553 Rocket 4.4 19:56:19 10° NNW 20:02:34 61° W 20:06:33 23° SSW
MOS 1 4.2 20:01:33 59° S 20:02:42 82° WSW 20:08:25 10° NNW
Cosmos 1536 Rocket 3.9 20:00:58 10° NNW 20:04:42 61° NW 20:04:42 61° NW
deb Chang Zheng 4 4.2 20:05:56 49° W 20:05:56 49° W 20:09:54 10° NNW
ERS-1 Rocket 4.1 20:07:14 32° NNE 20:07:14 32° NNE 20:10:35 10° N
SPOT 1/Viking Rocket 3.5 20:07:53 69° SW 20:08:19 74° WSW 20:13:30 10° NNW
Cosmos 2322 Rocket 2.6 20:03:16 10° SW 20:08:57 64° NW 20:14:40 10° NNE
NOSS 3-4 (A) 3.7 20:03:53 10° NW 20:10:39 89° SW 20:12:03 62° SE
NOSS 3-4 (C) 3.7 20:03:59 10° NW 20:10:45 90° WSW 20:12:10 62° SE
SPOT 3 Rocket 4.0 20:15:04 51° NNE 20:15:04 51° NNE 20:19:12 10° N
Ariane Rocket 3.1 20:16:26 71° N 20:16:26 71° N 20:21:00 10° NNW
Cosmos 1980 Rocket 4.4 20:11:48 10° W 20:16:08 22° NNW 20:20:28 10° NNE
USA 215 3.5 20:24:15 46° NE 20:26:12 66° N 20:32:40 10° W
Aureole 1 Rocket 3.9 20:19:47 10° SSW 20:26:59 86° WNW 20:32:34 10° NNE
USA 281 3.3 20:27:40 59° ENE 20:27:48 60° NE 20:34:14 10° NNW
Meteor 1-16 Rocket 4.3 20:30:33 74° WSW 20:30:51 76° WNW 20:36:49 10° NNE
Cosmos 2315 Rocket 4.0 20:31:32 10° NNW 20:37:56 83° W 20:37:56 83° W
Resurs 01 Rocket 3.1 20:38:52 35° WNW 20:38:52 35° WNW 20:42:24 10° NNW
Spot 2 Rocket 4.5 20:41:06 41° N 20:41:06 41° N 20:44:26 10° NNW
SL-16 R/B 3.7 20:34:32 10° WSW 20:39:44 35° NW 20:44:57 10° NNE
Cosmos 1943 Rocket 3.3 20:34:57 10° NNW 20:38:59 33° NNE 20:38:59 33° NNE
Terra 3.4 20:42:42 29° N 20:42:42 29° N 20:45:09 10° N
Cosmos 2278 Rocket 2.7 20:43:01 10° NNW 20:47:32 58° NNW 20:47:32 58° NNW
Gbstr 26 Del rocket 4.4 20:47:10 10° W 20:55:06 81° SSW 20:55:06 81° SSW
Cosmos 2369 Rocket 3.9 20:54:46 10° NNW 20:58:48 25° NNE 20:58:48 25° NNE
Cosmos 2219 Rocket 4.3 21:05:13 17° NNE 21:05:13 17° NNE 21:06:28 10° NNE
SeaSat 1 4.4 21:04:57 22° NNE 21:04:57 22° NNE 21:07:32 10° NNW
SJ 16-02 4.3 21:16:01 10° N 21:16:01 10° N 21:16:03 10° N
Cosmos 2333 Rocket 3.7 21:18:31 29° NNE 21:18:31 29° NNE 21:21:28 10° NNE
Cosmos 2360 Rocket 3.7 21:19:04 10° WSW 21:24:11 34° NW 21:29:20 10° NNE
ATLAS 2AS CENTAUR R/B 3.4 21:43:48 10° NW 21:49:00 50° NW 21:49:00 50° NW
Cosmos 2322 Rocket 4.5 21:49:50 10° W 21:54:08 21° NNW 21:58:27 10° NNE
USA 215 4.3 22:11:36 39° WNW 22:11:36 39° WNW 22:15:32 10° WNW
Cosmos 1943 Rocket 4.3 22:18:40 10° NW 22:20:29 21° NW 22:20:29 21° NW
Cosmos 2369 Rocket 4.3 22:38:35 10° NNW 22:40:34 22° NNW 22:40:34 22° NNW
Cosmos 2219 Rocket 4.3 22:46:54 22° NNW 22:46:54 22° NNW 22:50:11 10° NNE
Cosmos 2237 Rocket 4.5 23:13:46 19° NNE 23:13:46 19° NNE 23:15:30 10° NNE
SL-16 R/B 4.4 23:57:33 22° NNE 23:57:33 22° NNE 23:59:33 10° NNE
